Wind_Speed
3 4 5 5 5 6 3 1 5 7 7 7 7 7 7 7 8 8 8 8 8 6 6 6 5 5 5 5 5 5 5 4 4 4 4 4 4 4 5 5 5 5 5 4 5 6 5 5 6
4 4 4 4 4 2 1 3 6 8 9 7 7 7 8 7 8 9 8 8 8 7 6 6 5 5 5 5 5 5 5 5 5 5 5 5 5 5 4 5 5 5 5 5 5 6 6 6 5
3 4 4 3 1 2 3 5 6 7 9 8 7 7 8 8 9 9 9 8 8 7 6 6 5 5 5 6 6 5 6 6 6 6 6 6 6 5 5 5 5 5 5 5 5 5 6 6 6
4 4 4 2 2 2 4 6 8 8 8 8 8 8 8 9 10 9 9 9 8 7 6 6 6 6 6 6 6 6 6 6 6 6 6 6 6 6 6 5 6 6 6 5 5 5 5 6 6
5 4 3 1 3 4 6 8 8 8 7 8 9 10 10 10 10 10 10 10 9 7 7 6 6 6 6 7 7 6 6 6 7 7 7 6 7 6 6 7 7 6 6 6 5 4 4 5 6
6 4 2 4 6 7 8 9 8 8 6 8 10 11 11 11 11 11 11 11 9 8 7 7 6 6 6 7 7 7 7 7 8 8 8 7 7 6 6 7 6 6 5 5 5 4 4 5 6
7 5 4 7 8 8 8 9 10 10 9 8 10 12 11 11 10 11 11 11 9 8 7 7 7 7 7 7 7 8 7 7 8 8 9 9 7 6 6 6 7 7 7 7 7 6 6 6 6
7 7 6 7 9 10 10 11 11 10 11 10 11 13 12 12 11 11 11 11 9 8 8 8 8 8 8 8 8 8 8 8 8 9 9 8 8 7 7 6 7 8 8 8 8 8 8 7 7
8 8 7 7 10 12 12 12 13 12 12 12 13 14 14 13 12 12 12 11 10 10 9 8 8 8 8 9 9 9 9 9 9 9 8 8 8 8 8 8 8 8 8 8 9 10 9 9 8
9 9 8 8 12 14 13 13 13 13 13 13 14 15 14 14 13 13 13 12 11 10 10 9 8 9 8 9 9 9 9 9 9 9 9 9 9 8 8 9 9 9 9 10 9 9 10 10 10
11 12 12 13 15 16 14 14 13 13 13 14 14 15 14 14 14 13 13 13 13 11 10 10 10 9 9 9 9 10 10 10 10 9 9 9 9 9 9 9 9 9 9 9 10 10 10 11 12
14 14 14 15 17 17 15 15 14 13 14 15 15 16 15 14 14 13 13 14 13 12 10 10 10 10 10 10 9 10 10 11 10 10 9 9 9 10 10 9 9 9 9 10 10 11 11 12 12
16 17 16 16 16 15 16 17 15 13 14 16 17 17 16 15 15 14 14 15 13 12 12 10 11 12 12 12 11 11 12 11 11 11 10 10 10 10 10 9 8 9 9 10 11 11 11 12 12
17 17 17 16 15 16 17 17 17 15 16 16 17 18 17 16 16 15 14 14 14 14 13 13 13 13 13 13 13 13 13 13 12 12 11 10 10 11 11 10 10 10 10 10 11 11 11 10 11
18 18 18 18 17 17 16 17 15 16 17 18 18 19 18 16 17 16 15 14 14 15 14 14 14 14 14 13 14 14 14 13 13 12 12 13 12 12 12 12 12 11 11 11 11 11 11 11 12
19 20 19 18 17 17 17 17 16 17 17 18 19 19 18 18 17 17 16 15 15 15 15 15 15 14 14 14 14 15 15 14 14 14 14 14 13 13 13 13 12 12 12 12 11 11 11 11 11
19 19 19 18 17 17 18 18 19 18 18 19 20 19 19 18 18 18 16 16 16 16 16 16 15 15 15 15 15 15 15 15 15 15 15 14 14 14 14 13 13 13 13 12 12 12 12 12 11
18 18 17 17 17 18 19 19 19 19 18 19 21 21 21 19 19 19 18 17 17 16 17 17 17 16 16 16 16 16 16 16 15 15 15 15 15 14 14 14 14 13 13 13 13 14 14 13 12
17 17 17 17 17 18 21 20 19 19 20 20 21 21 21 21 20 20 19 18 18 17 18 17 17 17 17 16 16 16 16 16 16 16 16 16 15 15 15 15 15 14 14 14 15 15 14 14 14
18 18 17 17 16 18 20 21 20 20 21 20 21 21 21 20 20 20 20 18 18 18 18 18 17 17 17 17 17 17 17 17 17 16 16 16 17 16 16 16 15 15 15 15 16 16 16 16 15
19 19 17 18 18 19 20 22 20 19 20 20 20 21 20 20 20 20 20 19 18 17 18 17 17 17 17 17 18 18 18 18 17 17 17 17 18 17 17 17 17 17 17 17 17 17 16 16 16
20 19 19 19 19 20 20 22 21 21 23 24 22 21 20 20 20 20 20 19 19 18 18 18 17 17 17 17 17 17 18 18 18 18 18 19 19 18 18 18 18 18 18 17 17 17 17 17 17
20 19 19 19 20 21 19 22 21 22 23 24 21 21 21 21 21 20 20 19 19 19 19 19 18 17 17 18 17 17 17 18 18 19 19 19 20 19 18 18 18 18 18 18 18 17 17 17 17
20 20 19 19 20 22 20 21 20 21 24 24 23 22 22 21 21 20 20 19 19 19 19 19 19 19 19 19 18 18 18 19 19 20 20 20 20 20 19 19 19 19 19 19 19 19 18 18 18
18 19 19 20 21 22 20 22 21 23 23 23 22 22 22 22 22 20 20 20 19 18 19 19 20 20 20 20 19 19 19 19 20 20 19 20 20 20 20 19 19 19 20 20 19 19 19 19 19
20 20 20 20 21 21 21 21 21 21 21 22 21 21 22 22 21 20 20 19 19 19 19 20 20 20 20 20 20 20 19 19 19 19 20 19 18 18 18 19 19 19 19 20 19 19 19 19 19
21 21 20 21 21 22 21 20 22 22 21 22 21 21 20 19 19 19 19 19 19 19 20 20 21 21 20 20 20 21 20 20 20 20 20 20 19 18 19 20 20 19 19 18 18 18 19 19 18
21 21 21 22 23 23 20 20 21 23 24 22 21 21 19 19 19 19 19 19 20 20 20 20 21 21 21 21 21 20 20 20 21 21 20 20 19 19 19 19 19 19 19 18 18 19 18 18 18
22 22 23 24 25 23 22 21 22 22 22 23 22 21 20 19 19 18 19 19 20 21 21 21 22 21 21 21 20 21 21 21 21 21 20 20 19 19 19 19 19 20 19 18 19 19 18 19 19
21 23 24 25 24 23 23 21 21 23 22 21 22 22 20 20 19 18 20 20 20 22 21 21 21 21 21 21 21 22 22 22 22 21 21 21 20 18 19 19 18 18 17 17 17 18 18 19 20
Wind_Direction
127 118 112 105 98 83 82 335 301 299 299 305 308 306 306 300 299 304 309 309 309 310 299 299 307 302 296 295 293 297 298 293 290 282 283 284 270 255 249 247 244 242 240 240 234 226 223 223 224
134 131 130 118 86 82 272 276 286 296 297 306 308 307 307 311 308 307 310 310 308 306 298 294 301 302 299 299 295 290 289 288 286 289 291 289 280 260 254 252 252 252 251 247 243 230 225 227 232
150 154 144 111 76 288 282 287 291 295 299 305 303 307 308 314 313 312 312 313 309 305 301 295 298 303 301 298 298 291 289 288 288 288 284 283 282 274 260 258 254 254 258 254 248 238 233 237 238
170 166 137 102 274 268 278 290 294 294 300 307 304 304 310 311 313 314 315 313 310 305 300 298 301 301 300 298 298 293 287 288 290 293 282 280 281 281 269 259 257 257 257 256 248 244 240 240 240
187 173 127 246 265 268 271 281 287 301 309 307 304 306 312 312 310 312 315 312 310 306 298 295 299 298 300 298 297 295 289 288 290 291 287 278 285 282 276 266 264 262 265 265 251 243 249 250 245
204 162 183 264 259 255 265 275 285 288 300 305 302 304 307 307 306 309 314 313 311 309 302 300 299 298 297 302 303 300 295 294 292 289 287 285 284 281 274 270 269 268 272 270 260 258 263 266 257
221 186 218 253 263 256 267 281 285 286 292 295 298 300 305 304 307 310 312 314 307 305 306 299 296 298 297 298 300 302 299 297 296 291 292 290 290 284 280 276 266 265 267 269 268 271 271 270 267
220 208 216 254 270 268 272 280 279 280 281 287 293 293 299 303 309 310 309 311 312 308 303 300 298 297 296 296 297 298 298 297 298 298 297 296 295 291 289 282 275 270 267 267 268 271 274 275 274
228 224 231 243 260 265 268 272 279 279 284 287 285 285 295 299 306 305 305 306 308 306 302 299 299 298 300 300 300 295 294 295 296 298 300 301 298 295 290 282 281 275 264 265 268 271 273 275 274
239 244 243 244 251 258 259 268 276 280 286 286 284 285 290 295 300 300 299 298 297 298 299 300 300 300 302 300 301 298 296 295 296 297 299 299 300 297 294 284 280 276 267 267 267 271 272 271 271
245 244 242 247 252 257 259 263 269 276 280 279 281 286 288 292 295 296 297 296 294 295 296 297 298 299 300 299 301 302 302 300 296 295 297 299 303 302 299 293 288 285 277 271 267 270 270 270 269
248 245 247 251 251 255 260 262 267 273 276 277 277 280 286 289 293 294 294 296 296 297 293 295 296 298 298 294 299 302 302 300 297 296 299 300 301 301 300 296 297 293 285 275 271 272 272 269 270
246 247 250 255 255 256 260 260 265 269 273 276 280 280 281 285 288 289 291 292 295 294 291 290 295 296 295 294 297 300 300 297 297 296 298 300 302 302 299 299 298 297 293 285 280 277 272 273 272
248 251 254 259 262 262 264 265 262 265 268 273 276 278 279 281 284 289 291 290 290 291 290 291 291 291 290 291 296 297 297 298 298 296 296 299 303 302 299 295 297 296 293 288 283 282 278 279 276
251 252 253 255 260 263 265 266 270 270 271 275 275 277 277 277 281 286 288 286 284 286 288 289 289 290 288 290 294 297 296 294 294 294 295 297 298 300 300 297 294 293 292 290 287 284 281 281 276
250 252 255 255 258 263 264 265 267 266 269 274 277 277 275 276 281 284 285 284 284 285 286 286 287 288 289 289 290 293 293 291 290 291 292 296 296 297 299 295 292 290 288 287 288 287 288 289 282
251 254 257 257 260 263 265 267 265 267 270 273 277 277 275 276 280 282 283 284 285 286 286 285 285 287 289 287 288 290 288 288 289 290 291 293 293 295 296 293 292 291 287 286 288 285 285 286 286
256 257 258 254 255 261 264 267 268 271 272 272 275 278 276 275 278 280 281 284 286 285 283 283 284 285 287 285 286 287 286 285 287 289 289 290 291 292 292 291 291 289 286 283 283 283 281 281 280
253 251 253 254 253 256 260 262 265 270 270 271 274 277 278 276 276 278 279 281 284 284 283 283 283 283 284 283 283 284 286 283 283 286 285 286 288 288 288 287 288 286 284 282 281 282 279 276 274
256 256 251 258 260 260 259 260 261 264 268 269 273 275 277 277 276 277 280 280 281 282 281 281 281 281 283 282 282 281 283 283 282 285 283 283 284 284 285 288 285 283 282 280 279 278 277 275 273
251 254 253 256 256 258 260 263 265 269 273 273 270 274 277 277 277 276 279 280 281 279 278 278 278 279 281 281 280 281 281 282 282 283 282 282 284 284 284 284 284 282 281 280 279 276 273 273 273
250 251 255 256 256 259 260 266 266 261 264 269 271 273 276 278 279 277 278 280 279 276 274 276 278 280 280 283 284 283 281 280 280 281 281 281 281 282 282 281 284 281 278 277 279 278 275 273 272
249 249 253 253 256 257 260 265 267 262 261 269 271 272 275 279 279 277 279 279 276 272 270 272 275 277 279 282 283 283 282 282 281 282 281 280 279 280 281 280 280 280 278 277 278 277 276 274 276
249 248 251 254 255 257 260 264 268 268 267 269 271 273 275 277 277 277 277 276 273 270 269 271 273 274 278 280 279 282 283 283 282 282 282 282 280 278 278 277 277 278 278 277 276 275 274 274 275
245 248 253 255 256 261 258 260 264 265 266 268 270 270 271 274 272 274 274 274 272 269 268 269 271 275 276 275 277 280 283 284 283 284 284 283 283 281 279 276 276 276 276 276 275 274 273 272 274
244 244 247 254 260 262 262 261 263 265 266 269 271 271 272 271 270 272 273 274 271 269 268 269 271 274 275 275 277 280 279 281 283 283 285 286 284 281 280 279 280 279 277 276 274 272 271 274 272
247 245 247 253 256 263 263 265 265 265 268 269 269 273 272 268 271 270 270 269 269 270 270 270 271 272 272 274 276 277 278 278 277 279 282 285 283 280 279 280 281 279 279 277 274 274 273 274 272
247 248 248 249 255 260 264 263 265 266 266 267 272 273 272 272 273 269 269 267 268 271 271 270 271 270 270 270 272 275 279 279 276 277 279 282 280 279 280 282 282 282 280 277 275 276 276 275 273
243 242 245 250 253 258 263 261 263 265 267 270 272 274 270 269 270 271 267 264 267 270 271 270 270 269 269 272 274 276 279 279 279 280 280 280 279 278 281 283 284 282 278 275 276 277 276 274 271
245 244 244 247 248 253 261 264 265 270 268 271 273 273 272 268 269 271 269 266 265 269 271 272 269 268 269 271 275 277 279 280 279 281 280 277 278 279 282 285 285 284 282 279 279 277 276 273 273
Height
5892 5893 5894 5895 5895 5895 5896 5896 5896 5895 5893 5892 5891 5890 5889 5889 5889 5890 5887 5884 5884 5883 5882 5882 5882 5881 5881 5880 5880 5879 5879 5878 5878 5877 5877 5876 5876 5876 5876 5876 5876 5876 5877 5877 5877 5878 5878 5879 5879
5893 5893 5895 5895 5895 5895 5896 5895 5895 5894 5893 5892 5891 5890 5889 5887 5887 5886 5885 5884 5883 5882 5882 5881 5881 5881 5880 5880 5879 5879 5878 5878 5877 5877 5876 5876 5876 5875 5876 5875 5876 5876 5876 5876 5877 5877 5877 5878 5879
5892 5893 5894 5894 5895 5895 5895 5895 5894 5893 5892 5891 5891 5890 5889 5887 5887 5885 5884 5883 5883 5882 5881 5881 5880 5880 5879 5879 5879 5878 5878 5877 5877 5876 5876 5875 5875 5875 5875 5875 5875 5875 5875 5875 5876 5876 5877 5877 5878
5892 5894 5894 5895 5895 5895 5895 5895 5894 5893 5892 5891 5890 5889 5888 5887 5886 5885 5884 5883 5882 5882 5881 5880 5880 5880 5879 5878 5878 5877 5877 5877 5876 5876 5875 5874 5874 5874 5874 5874 5874 5874 5875 5875 5875 5875 5876 5876 5877
5892 5893 5893 5895 5895 5895 5896 5894 5893 5893 5892 5890 5889 5888 5887 5886 5885 5884 5883 5882 5881 5881 5880 5880 5879 5879 5879 5878 5877 5877 5876 5876 5876 5875 5874 5874 5873 5873 5873 5873 5873 5873 5874 5874 5874 5874 5875 5875 5876
5891 5891 5893 5894 5895 5895 5894 5892 5893 5893 5891 5889 5888 5887 5886 5885 5884 5883 5882 5881 5880 5880 5880 5879 5879 5879 5878 5877 5877 5876 5876 5875 5875 5874 5873 5872 5872 5872 5872 5872 5872 5872 5872 5873 5873 5873 5874 5874 5874
5890 5890 5892 5893 5893 5893 5893 5891 5892 5892 5890 5889 5887 5886 5884 5884 5882 5882 5881 5880 5879 5879 5879 5878 5878 5878 5877 5877 5876 5876 5875 5875 5874 5873 5872 5872 5871 5871 5871 5871 5871 5871 5871 5871 5872 5872 5873 5873 5873
5887 5889 5890 5892 5893 5892 5891 5890 5890 5890 5889 5888 5887 5885 5884 5883 5882 5881 5880 5879 5878 5878 5878 5877 5877 5877 5876 5876 5875 5875 5874 5874 5873 5872 5872 5871 5870 5870 5869 5869 5870 5870 5870 5870 5871 5871 5871 5872 5872
5886 5888 5888 5890 5891 5890 5889 5889 5889 5888 5887 5887 5885 5883 5883 5881 5880 5880 5879 5877 5877 5877 5876 5876 5876 5875 5875 5874 5874 5873 5873 5872 5872 5871 5871 5870 5870 5869 5868 5868 5868 5868 5868 5868 5869 5869 5870 5870 5871
5884 5885 5886 5887 5889 5888 5886 5886 5887 5886 5886 5885 5883 5881 5881 5880 5880 5879 5878 5877 5876 5875 5875 5875 5874 5874 5874 5873 5873 5872 5872 5871 5871 5870 5870 5869 5869 5868 5867 5866 5866 5866 5866 5866 5867 5867 5868 5868 5869
5881 5883 5884 5885 5885 5884 5883 5883 5884 5884 5884 5883 5881 5879 5879 5879 5878 5877 5876 5875 5875 5874 5873 5873 5873 5873 5873 5872 5871 5871 5870 5870 5869 5869 5869 5868 5867 5867 5866 5865 5865 5864 5864 5865 5865 5865 5866 5866 5867
5879 5880 5880 5881 5881 5881 5881 5881 5881 5881 5882 5880 5879 5877 5877 5877 5877 5876 5875 5874 5873 5872 5871 5871 5871 5871 5871 5870 5869 5870 5869 5868 5868 5867 5867 5866 5866 5865 5865 5864 5864 5863 5863 5863 5863 5863 5864 5865 5865
5875 5877 5877 5877 5877 5877 5878 5879 5879 5879 5878 5877 5876 5875 5875 5875 5874 5873 5872 5871 5871 5870 5870 5869 5869 5869 5869 5868 5868 5868 5867 5866 5865 5865 5865 5865 5864 5864 5863 5862 5862 5862 5861 5861 5861 5862 5862 5863 5863
5872 5872 5873 5873 5874 5874 5875 5876 5876 5876 5875 5874 5874 5873 5872 5872 5871 5870 5869 5869 5869 5868 5868 5868 5868 5867 5867 5867 5866 5866 5865 5864 5864 5864 5863 5863 5862 5862 5861 5861 5860 5860 5860 5859 5859 5860 5860 5860 5861
5867 5868 5869 5870 5870 5871 5872 5872 5872 5872 5872 5871 5871 5870 5870 5869 5869 5868 5868 5867 5866 5866 5866 5866 5866 5865 5865 5865 5864 5864 5863 5863 5862 5862 5861 5861 5860 5860 5859 5859 5858 5858 5857 5857 5857 5857 5857 5858 5858
5863 5864 5865 5866 5867 5868 5870 5869 5869 5868 5868 5868 5868 5867 5867 5866 5866 5865 5865 5864 5864 5864 5863 5864 5863 5863 5862 5862 5862 5862 5861 5860 5860 5860 5859 5858 5858 5857 5857 5857 5856 5855 5855 5855 5855 5855 5856 5856 5856
5859 5860 5861 5863 5864 5865 5865 5865 5865 5865 5865 5865 5864 5864 5863 5863 5863 5862 5862 5862 5861 5861 5861 5861 5861 5860 5860 5860 5859 5859 5858 5857 5857 5857 5857 5856 5855 5855 5854 5854 5854 5853 5853 5853 5853 5853 5853 5853 5853
5856 5857 5858 5860 5861 5862 5861 5861 5861 5862 5861 5861 5861 5860 5860 5860 5859 5859 5859 5859 5858 5858 5858 5858 5858 5857 5857 5857 5856 5856 5855 5855 5854 5854 5854 5853 5853 5852 5852 5851 5851 5850 5850 5850 5850 5850 5850 5850 5851
5852 5853 5854 5856 5857 5858 5858 5858 5858 5858 5857 5857 5857 5856 5855 5855 5855 5855 5855 5855 5855 5855 5855 5854 5854 5854 5854 5854 5853 5853 5852 5852 5852 5851 5851 5851 5850 5849 5849 5848 5848 5847 5847 5847 5847 5847 5847 5847 5847
5847 5849 5850 5852 5854 5854 5854 5853 5854 5853 5852 5853 5853 5852 5852 5851 5851 5851 5851 5851 5851 5851 5851 5851 5851 5851 5850 5850 5850 5849 5849 5848 5848 5848 5848 5847 5847 5846 5845 5845 5844 5844 5844 5844 5844 5844 5844 5844 5844
5844 5845 5846 5849 5850 5850 5850 5849 5849 5849 5848 5848 5847 5848 5848 5847 5847 5847 5847 5847 5847 5847 5847 5847 5847 5847 5847 5846 5846 5845 5845 5845 5845 5844 5844 5844 5843 5842 5842 5841 5841 5841 5840 5840 5840 5840 5840 5840 5840
5840 5842 5843 5844 5845 5845 5846 5845 5846 5845 5844 5843 5843 5843 5843 5843 5843 5843 5843 5843 5843 5843 5843 5843 5843 5843 5843 5843 5842 5842 5841 5841 5841 5840 5840 5840 5839 5838 5838 5837 5837 5837 5836 5836 5836 5835 5835 5835 5835
5836 5838 5839 5840 5840 5840 5840 5840 5841 5840 5839 5839 5839 5839 5838 5838 5838 5839 5838 5839 5839 5839 5839 5839 5839 5839 5839 5839 5839 5838 5837 5837 5836 5836 5835 5835 5834 5834 5834 5833 5833 5832 5832 5832 5831 5831 5831 5831 5831
5831 5833 5834 5834 5835 5835 5836 5836 5836 5834 5834 5834 5834 5834 5834 5834 5834 5834 5833 5834 5834 5834 5835 5835 5835 5835 5835 5835 5834 5834 5833 5833 5832 5831 5831 5830 5830 5829 5829 5828 5828 5828 5827 5827 5827 5827 5827 5827 5827
5827 5829 5830 5830 5830 5830 5832 5831 5831 5829 5829 5828 5829 5829 5829 5829 5829 5829 5828 5829 5829 5830 5831 5831 5831 5831 5830 5830 5830 5830 5829 5829 5828 5827 5826 5826 5825 5825 5824 5824 5823 5823 5822 5822 5822 5822 5821 5822 5822
5822 5824 5825 5826 5827 5826 5826 5825 5826 5823 5823 5823 5823 5823 5823 5823 5823 5823 5824 5824 5824 5825 5826 5826 5827 5826 5825 5825 5825 5825 5825 5824 5823 5823 5822 5822 5821 5820 5819 5819 5818 5818 5817 5817 5816 5816 5816 5816 5817
5817 5818 5821 5821 5821 5821 5822 5821 5820 5818 5818 5818 5818 5818 5818 5818 5818 5819 5819 5820 5820 5820 5821 5821 5822 5821 5821 5821 5821 5821 5820 5819 5819 5818 5818 5817 5816 5816 5815 5814 5813 5813 5812 5811 5811 5811 5811 5811 5811
5812 5814 5816 5816 5815 5815 5817 5817 5816 5815 5814 5814 5814 5814 5814 5814 5814 5814 5815 5815 5815 5815 5816 5816 5816 5816 5816 5817 5816 5816 5816 5815 5814 5813 5813 5812 5811 5810 5810 5809 5808 5807 5806 5806 5806 5806 5806 5806 5807
5807 5808 5809 5811 5811 5811 5811 5814 5811 5809 5809 5809 5809 5809 5808 5809 5809 5809 5810 5810 5811 5811 5811 5811 5811 5811 5811 5811 5811 5811 5811 5810 5809 5808 5808 5807 5806 5806 5805 5804 5803 5803 5802 5801 5801 5801 5800 5801 5801
5801 5802 5804 5804 5804 5805 5806 5809 5806 5805 5804 5805 5804 5804 5804 5804 5804 5805 5805 5805 5805 5806 5806 5806 5806 5806 5806 5806 5806 5806 5805 5805 5804 5803 5802 5802 5801 5801 5800 5799 5798 5798 5797 5797 5796 5796 5796 5796 5796